| time (UTC) | temp C | wind direction | speed KPH | gust KPH | rain 1hr cm | rain 24hr cm | rain mn cm | humidity % | barometer mb |
| 20260506223248 | 12 | 54 | 11.3 | 19.3 | 0.00 | 0.00 | 0.00 | 52 | 1007.9 |
| 20260506221737 | 12 | 73 | 3.2 | 6.4 | 0.00 | 0.00 | 0.00 | 51 | 1007.9 |
| 20260506220244 | 12 | 73 | 3.2 | 8.0 | 0.00 | 0.00 | 0.00 | 52 | 1008.1 |
| 20260506214743 | 12 | 73 | 3.2 | 4.8 | 0.00 | 0.00 | 0.00 | 53 | 1008.1 |
| 20260506213307 | 12 | 73 | 4.8 | 8.0 | 0.00 | 0.00 | 0.00 | 52 | 1008.2 |
| 20260506211756 | 12 | 73 | 3.2 | 4.8 | 0.00 | 0.00 | 0.00 | 48 | 1008.2 |
| 20260506210233 | 12 | 73 | 1.6 | 4.8 | 0.00 | 0.00 | 0.00 | 46 | 1008.3 |
| 20260506204737 | 13 | 73 | 0.0 | 3.2 | 0.00 | 0.00 | 0.00 | 45 | 1008.1 |
| 20260506203232 | 13 | 73 | 3.2 | 4.8 | 0.00 | 0.00 | 0.00 | 43 | 1007.9 |
| 20260506201742 | 13 | 73 | 0.0 | 3.2 | 0.00 | 0.00 | 0.00 | 43 | 1007.8 |
| 20260506200235 | 14 | 73 | 3.2 | 4.8 | 0.00 | 0.00 | 0.00 | 39 | 1007.7 |
| 20260506194805 | 14 | 73 | 1.6 | 3.2 | 0.00 | 0.00 | 0.00 | 35 | 1007.7 |
| 20260506193233 | 14 | 73 | 0.0 | 3.2 | 0.00 | 0.00 | 0.00 | 32 | 1007.7 |
| 20260506191743 | 15 | 73 | 1.6 | 4.8 | 0.00 | 0.00 | 0.00 | 31 | 1007.7 |
| 20260506190234 | 15 | 73 | 3.2 | 4.8 | 0.00 | 0.00 | 0.00 | 31 | 1007.8 |
| 20260506184745 | 15 | 73 | 1.6 | 6.4 | 0.00 | 0.00 | 0.00 | 31 | 1007.7 |
| 20260506183235 | 15 | 73 | 6.4 | 9.7 | 0.00 | 0.00 | 0.00 | 31 | 1007.7 |
| 20260506181739 | 15 | 99 | 3.2 | 9.7 | 0.00 | 0.00 | 0.00 | 30 | 1007.8 |
| 20260506180300 | 15 | 109 | 4.8 | 11.3 | 0.00 | 0.00 | 0.00 | 30 | 1007.2 |
| 20260506174733 | 15 | 75 | 3.2 | 8.0 | 0.00 | 0.18 | 0.00 | 32 | 1008.1 |
| 20260506173257 | 15 | 83 | 4.8 | 11.3 | 0.00 | 0.18 | 0.00 | 31 | 1008.2 |
| 20260506171747 | 15 | 75 | 4.8 | 12.9 | 0.00 | 0.18 | 0.00 | 31 | 1007.4 |
| 20260506170310 | 16 | 128 | 3.2 | 11.3 | 0.00 | 0.18 | 0.00 | 32 | 1008.2 |
| 20260506164757 | 16 | 106 | 3.2 | 8.0 | 0.00 | 0.18 | 0.00 | 31 | 1008.3 |
| 20260506163259 | 16 | 152 | 3.2 | 11.3 | 0.00 | 0.18 | 0.00 | 31 | 1008.3 |
| 20260506161744 | 15 | 61 | 3.2 | 12.9 | 0.00 | 0.18 | 0.00 | 32 | 1008.3 |
| 20260506160239 | 16 | 167 | 3.2 | 12.9 | 0.00 | 0.18 | 0.00 | 31 | 1008.4 |
| 20260506154746 | 15 | 138 | 4.8 | 16.1 | 0.00 | 0.18 | 0.00 | 34 | 1007.8 |
| 20260506153236 | 15 | 62 | 1.6 | 9.7 | 0.00 | 0.18 | 0.00 | 33 | 1008.8 |
| 20260506151805 | 15 | 155 | 0.0 | 11.3 | 0.00 | 0.18 | 0.00 | 33 | 1008.9 |
| 20260506150304 | 15 | 117 | 6.4 | 16.1 | 0.00 | 0.18 | 0.00 | 35 | 1009.1 |
| 20260506144800 | 15 | 104 | 1.6 | 9.7 | 0.00 | 0.18 | 0.00 | 35 | 1009.3 |
| 20260506143246 | 15 | 82 | 6.4 | 17.7 | 0.00 | 0.18 | 0.00 | 36 | 1009.5 |
| 20260506141817 | 14 | 47 | 6.4 | 11.3 | 0.00 | 0.18 | 0.00 | 39 | 1009.7 |
| 20260506140242 | 13 | 49 | 11.3 | 12.9 | 0.00 | 0.18 | 0.00 | 39 | 1009.7 |
| 20260506134749 | 14 | 75 | 0.0 | 11.3 | 0.00 | 0.18 | 0.00 | 38 | 1009.9 |
| 20260506133235 | 15 | 157 | 1.6 | 8.0 | 0.00 | 0.18 | 0.00 | 35 | 1009.9 |
| 20260506131742 | 15 | 133 | 6.4 | 11.3 | 0.00 | 0.18 | 0.00 | 36 | 1010.0 |
| 20260506130242 | 13 | 48 | 6.4 | 17.7 | 0.00 | 0.18 | 0.00 | 41 | 1010.3 |
| 20260506124749 | 13 | 40 | 1.6 | 8.0 | 0.00 | 0.18 | 0.00 | 39 | 1010.2 |
| 20260506123236 | 13 | 178 | 0.0 | 9.7 | 0.00 | 0.18 | 0.00 | 41 | 1010.6 |
| 20260506121742 | 13 | 234 | 0.0 | 8.0 | 0.00 | 0.18 | 0.00 | 44 | 1010.8 |
| 20260506120257 | 12 | 291 | 4.8 | 11.3 | 0.00 | 0.18 | 0.00 | 44 | 1010.9 |
| 20260506114747 | 12 | 73 | 1.6 | 9.7 | 0.00 | 0.18 | 0.00 | 46 | 1011.1 |
| 20260506113235 | 12 | 14 | 4.8 | 11.3 | 0.00 | 0.18 | 0.00 | 47 | 1010.5 |
| 20260506111743 | 12 | 329 | 8.0 | 11.3 | 0.00 | 0.18 | 0.00 | 47 | 1011.2 |
| 20260506110258 | 12 | 27 | 1.6 | 12.9 | 0.00 | 0.18 | 0.00 | 47 | 1011.2 |
| 20260506104739 | 12 | 25 | 3.2 | 12.9 | 0.00 | 0.18 | 0.00 | 47 | 1010.5 |
| 20260506103252 | 12 | 58 | 8.0 | 11.3 | 0.00 | 0.18 | 0.00 | 47 | 1010.6 |
| 20260506101756 | 11 | 38 | 4.8 | 11.3 | 0.00 | 0.18 | 0.00 | 49 | 1010.8 |
| 20260506100250 | 11 | 320 | 9.7 | 12.9 | 0.00 | 0.18 | 0.00 | 50 | 1010.6 |
| 20260506094758 | 10 | 54 | 8.0 | 19.3 | 0.00 | 0.18 | 0.00 | 51 | 1010.6 |
| 20260506093241 | 10 | 76 | 1.6 | 12.9 | 0.00 | 0.18 | 0.00 | 55 | 1010.7 |
| 20260506091746 | 10 | 47 | 8.0 | 16.1 | 0.00 | 0.18 | 0.00 | 54 | 1010.7 |
| 20260506090243 | 10 | 34 | 8.0 | 14.5 | 0.00 | 0.18 | 0.00 | 57 | 1010.7 |
| 20260506084810 | 10 | 52 | 4.8 | 14.5 | 0.00 | 0.18 | 0.00 | 63 | 1010.6 |
| 20260506083239 | 10 | 37 | 6.4 | 12.9 | 0.00 | 0.18 | 0.00 | 66 | 1010.8 |
| 20260506081805 | 10 | 38 | 11.3 | 16.1 | 0.00 | 0.18 | 0.00 | 69 | 1010.6 |
| 20260506080239 | 9 | 20 | 8.0 | 11.3 | 0.00 | 0.18 | 0.00 | 73 | 1010.8 |
| 20260506073249 | 8 | 337 | 8.0 | 16.1 | 0.00 | 0.18 | 0.00 | 76 | 1011.0 |
| 20260506071742 | 8 | 27 | 3.2 | 4.8 | 0.00 | 0.18 | 0.00 | 80 | 1011.0 |
| 20260506070235 | 7 | 49 | 3.2 | 9.7 | 0.00 | 0.18 | 0.00 | 82 | 1011.1 |
| 20260506061743 | 6 | 360 | 4.8 | 9.7 | 0.00 | 0.18 | 0.00 | 83 | 1011.2 |
| 20260506060238 | 6 | 360 | 1.6 | 3.2 | 0.00 | 0.18 | 0.00 | 86 | 1010.5 |
| 20260506050254 | 6 | 360 | 3.2 | 6.4 | 0.00 | 0.18 | 0.00 | 83 | 1010.3 |
| 20260506044739 | 6 | 360 | 0.0 | 3.2 | 0.00 | 0.18 | 0.00 | 83 | 1010.4 |
| 20260506043245 | 6 | 360 | 3.2 | 4.8 | 0.00 | 0.18 | 0.00 | 83 | 1010.4 |
| 20260506041736 | 6 | 360 | 0.0 | 3.2 | 0.00 | 0.18 | 0.00 | 83 | 1010.6 |
| 20260506040232 | 6 | 360 | 0.0 | 1.6 | 0.00 | 0.18 | 0.00 | 82 | 1010.7 |
| 20260506034741 | 6 | 360 | 0.0 | 0.0 | 0.00 | 0.18 | 0.00 | 81 | 1010.6 |
| 20260506033255 | 6 | 360 | 0.0 | 4.8 | 0.00 | 0.18 | 0.00 | 80 | 1010.6 |
| 20260506031742 | 7 | 360 | 0.0 | 6.4 | 0.00 | 0.18 | 0.00 | 79 | 1010.5 |
| 20260506030240 | 7 | 360 | 1.6 | 11.3 | 0.00 | 0.18 | 0.00 | 79 | 1010.4 |
| 20260506024820 | 7 | 16 | 4.8 | 14.5 | 0.00 | 0.18 | 0.00 | 79 | 1010.4 |
| 20260506023238 | 7 | 360 | 9.7 | 16.1 | 0.00 | 0.18 | 0.00 | 78 | 1010.4 |
| 20260506021802 | 7 | 337 | 6.4 | 19.3 | 0.00 | 0.18 | 0.00 | 78 | 1010.4 |
| 20260506020235 | 7 | 340 | 11.3 | 17.7 | 0.00 | 0.18 | 0.00 | 78 | 1011.0 |
| 20260506014743 | 7 | 359 | 11.3 | 16.1 | 0.00 | 0.18 | 0.00 | 80 | 1011.1 |
| 20260506013253 | 7 | 330 | 9.7 | 16.1 | 0.00 | 0.18 | 0.00 | 81 | 1011.2 |
| 20260506011738 | 7 | 336 | 9.7 | 12.9 | 0.00 | 0.18 | 0.00 | 80 | 1011.1 |
| 20260506010308 | 7 | 339 | 8.0 | 11.3 | 0.00 | 0.18 | 0.00 | 79 | 1011.6 |
| 20260506004733 | 7 | 333 | 9.7 | 16.1 | 0.00 | 0.18 | 0.00 | 78 | 1011.6 |
| 20260506003257 | 7 | 318 | 8.0 | 11.3 | 0.00 | 0.18 | 0.00 | 77 | 1011.5 |
| 20260506001740 | 8 | 339 | 9.7 | 17.7 | 0.00 | 0.18 | 0.00 | 77 | 1011.5 |
| 20260506000236 | 8 | 330 | 6.4 | 17.7 | 0.00 | 0.18 | 0.00 | 77 | 1011.7 |
| 20260505234739 | 8 | 332 | 11.3 | 17.7 | 0.00 | 0.18 | 0.00 | 77 | 1011.7 |
| 20260505233233 | 8 | 326 | 14.5 | 17.7 | 0.00 | 0.18 | 0.00 | 77 | 1011.8 |
| 20260505231742 | 8 | 322 | 12.9 | 19.3 | 0.00 | 0.18 | 0.00 | 78 | 1011.8 |
| 20260505230233 | 8 | 308 | 11.3 | 22.5 | 0.00 | 0.18 | 0.00 | 76 | 1011.7 |
| 20260505224740 | 8 | 344 | 17.7 | 22.5 | 0.00 | 0.18 | 0.00 | 75 | 1011.9 |